Find Starlink 37377

NORAD ID: 100483 Int'l Des: 2026-196 Owner: SPXS Country: US Constellation: starlink operational

現在のビュー

3D地球を読み込み中...

About Starlink 37377

Starlink 37377 (NORAD 100483) is a starlink constellation satellite launched Aug 25, 2026 by SPXS of US. with a mass of 575.00 kg.

次回通過

Passes for default location (London). Set your location on the main map for personalized predictions.

高度履歴

Loading altitude history...

軌道要素

1 A0483U 26196L 26254.80853981 .00290022 00000-0 14885-2 0 9993
2 A0483 53.1573 285.0847 0001352 90.6457 269.4721 15.79905610 3981
Epoch: Sep 11, 2026 • Age: 211 hours

現在のステータス

高度 319.1 km
遠地点 / 近地点 N/A
速度 7.72 km/s
衛星直下点 -13.77°S, 20.94°E
打ち上げ日 Aug 25, 2026
運用期間 26 days
タイプ internet

技術仕様

分類 Payload
質量 575.00 kg
乾燥質量 530.00 kg
長さ 0.30 m
スパン 29.00 m
形状 ? Box + pan
製造者 SPXS
バスタイプ Starlink V2MO
フェーズステータス In Orbit
所有者/国 SPXS/US

Most Searched